Location: Unspecified
(0.0000°N, 0.0000°E)
Time: 15:13:47
(UTC+00:00)

Explorer 11/Cluster Stage 4 - Pass Details

Date: 26 February 2024
Orbit: 465 x 1219 km, 28.8° (Epoch: 24 April)

Event Time Altitude Azimuth Distance (km) Brightness Sun altitude
Rises 19:01:26 0° 223° (SW) 3,271 10.7 -12.0°
Reaches altitude 10° 19:03:55 10° 215° (SW) 2,460 9.8 -12.6°
Maximum altitude 19:09:27 38° 148° (SSE) 1,441 7.7 -14.0°
Enters shadow 19:13:40 20° 93° (E) 2,220 8.3 -15.0°
